This is the latest recevied weather packets stored in our database for station/object K5RNB. If no packets are shown the sender has not sent any weather packets the latest 10 day(s).
| Time | Temp. | Humidity | Pressure | Rain* | Wind** | Luminosity | Snow |
|---|---|---|---|---|---|---|---|
| 1777015761 | 22.78° C | 82% | 1002.6 hPa | 0 mm | - | - | - |
| 1777006164 | 23.33° C | 80% | 1003.3 hPa | 0 mm | - | - | - |
| 1777004664 | 23.33° C | 80% | 1003.1 hPa | 0 mm | - | - | - |
| 1777003462 | 23.89° C | 79% | 1003.5 hPa | 0 mm | - | - | - |
| 1777001062 | 23.89° C | 78% | 1004.1 hPa | 0 mm | - | - | - |
| 1776999263 | 23.89° C | 78% | 1004.3 hPa | 0 mm | - | - | - |
| 1776996563 | 23.89° C | 78% | 1004.1 hPa | 0 mm | - | - | - |
| 1776993863 | 24.44° C | 77% | 1003.8 hPa | 0 mm | - | - | - |
| 1776992964 | 24.44° C | 77% | 1003.7 hPa | 0 mm | - | - | - |
| 1776991164 | 24.44° C | 77% | 1003.4 hPa | 0 mm | - | - | - |
| 1776989064 | 24.44° C | 76% | 1003.7 hPa | 0 mm | - | - | - |
| 1776985163 | 25° C | 75% | 1004.3 hPa | 0 mm | - | - | - |
| 1776984864 | 25° C | 75% | 1004.4 hPa | 0 mm | - | - | - |
| 1776981564 | 24.44° C | 77% | 1004.5 hPa | 0 mm | - | - | - |
| 1776980965 | 24.44° C | 77% | 1004.5 hPa | 0 mm | - | - | - |
| 1776980664 | 24.44° C | 77% | 1004.5 hPa | 0 mm | - | - | - |
| 1776979165 | 25° C | 77% | 1005 hPa | 0 mm | - | - | - |
| 1776978565 | 24.44° C | 78% | 1005.1 hPa | 0 mm | - | - | - |
| 1776978265 | 24.44° C | 77% | 1005.2 hPa | 0 mm | - | - | - |
| 1776975865 | 25° C | 76% | 1005.8 hPa | 0 mm | - | - | - |
| 1776975265 | 25° C | 76% | 1006.1 hPa | 0 mm | - | - | - |
| 1776974965 | 25° C | 77% | 1006.2 hPa | 0 mm | - | - | - |
| 1776974065 | 24.44° C | 77% | 1006.4 hPa | 0 mm | - | - | - |
| 1776973466 | 24.44° C | 77% | 1006.6 hPa | 0 mm | - | - | - |
| 1776971965 | 24.44° C | 78% | 1006.8 hPa | 0 mm | - | - | - |
* Rain latest hour (hover to see other rain measurements)
** Current wind speed in m/s (hover to see current wind gust speed)